Regional Weather Roundup
Issued by NWS

Home | Current Version | Previous Version | Graphics & Text | Print | Product List | Glossary Off
Versions: 1 2 3 4 5 6 7 8 9 10 11 12 13 14 15 16 17 18 19 20 21 22 23 24 25 26 27 28 29 30 31 32 33 34 35 36 37 38 39 40 41 42 43 44 45 46 47 48 49 50

000
ASUS43 KMPX 220610
RWRMN
WEATHER ROUNDUP FOR MINNESOTA
NATIONAL WEATHER SERVICE TWIN CITIES/CHANHASSEN MN
100 AM CDT WED OCT 22 2014


NOTE: "FAIR" INDICATES FEW OR NO CLOUDS BELOW 12,000 FEET WITH NO
SIGNIFICANT WEATHER AND/OR OBSTRUCTIONS TO VISIBILITY. N/A MEANS
CURRENT SKY AND/OR WEATHER CONDITIONS ARE NOT AVAILABLE.

MNZ060>063-068>070-220700-
   Twin Cities Metro

CITY           SKY/WX    TMP DP  RH WIND       PRES   REMARKS
TWIN CITIES    CLEAR     44  37  76 SE12      30.18S
6HR MIN TEMP:  44; 6HR MAX TEMP:  53;

ST PAUL        CLEAR     46  38  73 SE10      30.19S
CRYSTAL        CLEAR     48  37  65 SE9       30.16S
BLAINE         CLEAR     46  39  76 SE8       30.17R
LAKEVILLE      CLEAR     41  37  87 SE7       30.18S
EDEN PRAIRIE   CLEAR     46  38  73 SE13      30.15S
6HR MIN TEMP:  46; 6HR MAX TEMP:  54;

SOUTH ST PAUL  CLEAR     46  37  70 SE7       30.18S
LAKE ELMO      FAIR      45  37  76 SE8       30.20S
$$
MNZ001>005-007-008-013>017-022>024-027-028-220700-
   Northwest Minnesota

CITY           SKY/WX    TMP DP  RH WIND       PRES   REMARKS
BEMIDJI        CLEAR     46  38  74 SE12      30.03F
HALLOCK        CLEAR     54  41  62 S21G26    29.84F
ROSEAU         PTCLDY    52  41  66 S20G26    29.91F
WARROAD        FAIR      50  41  71 S14G23    29.94S
THIEF RVR FALL CLEAR     52  39  62 SE16      29.92S
CROOKSTON      CLEAR     54  41  62 S23G31    29.90S
FOSSTON        CLEAR     48  37  66 SE20G26   29.96S
DETROIT LAKES  CLEAR     48  41  76 SE14G20   30.00S
MOORHEAD       CLEAR     55  43  62 S24G35    29.92F
PARK RAPIDS    CLEAR     45  38  76 SE14      30.05S
MAHNOMEN       FAIR      52  40  64 S23       29.95F
$$
MNZ006-009>011-018-025>026-220700-
   North Central Minnesota

CITY           SKY/WX    TMP DP  RH WIND       PRES   REMARKS
BAUDETTE       CLEAR     45  36  70 SE10G18   30.00S
FLAG ISLAND    CLEAR     46  39  76 S28       29.95S
INTL FALLS     CLEAR     39  34  82 SE9       30.08S
6HR MIN TEMP:  39; 6HR MAX TEMP:  43;

WASKISH        CLEAR     46  37  71 SE15G22   30.00F
BIG FORK       CLEAR     41  36  81 SE8G16    30.10S
LONGVILLE      FAIR      45  37  76 SE3       30.09S
GRAND RAPIDS   CLEAR     37  34  87 SE9       30.12F
CRANE LAKE     CLEAR     34  34 100 CALM      30.16S
ORR            CLEAR     36  34  93 SE8       30.10F
COOK           CLEAR     37  36  93 SE8       30.15S
WALKER         FAIR      47  38  70 SE12G17   30.06S
$$
MNZ012-019>021-037-220700-
   Northeast Minnesota

CITY           SKY/WX    TMP DP  RH WIND       PRES   REMARKS
DULUTH         CLEAR     39  35  86 SE9       30.18F
6HR MIN TEMP:  37; 6HR MAX TEMP:  41;

ELY            CLEAR     37  36  93 SE7       30.17F
HIBBING        CLEAR     36  33  89 SE7       30.16S
EVELETH        CLEAR     36  36 100 SE5       30.17F
DULUTH HARBOR  CLEAR     45  37  76 SE5       30.21F
TWO HARBORS    CLEAR     39  28  65 E3        30.20S
SILVER BAY     CLEAR     39  37  93 NE3       30.21S
GRAND MARAIS     N/A     44  38  79 E7        30.27S
G MARAIS ARPRT CLOUDY    36  32  87 SE6       30.24S
$$
MNZ029>031-032-039>041-046>048-054>057-064-220700-
   West Central Minnesota

CITY           SKY/WX    TMP DP  RH WIND       PRES   REMARKS
FERGUS FALLS   CLEAR     54  37  54 S18       29.99R
WHEATON        CLEAR     52  39  62 SE18G25   29.96F
MORRIS         CLEAR     50  41  71 SE18      29.99F
ALEXANDRIA     CLEAR     47  40  76 SE13      30.05F
ELBOW LAKE     FAIR      53  40  63 SE22G33   29.99S
WADENA         CLEAR     45  37  76 SE13      30.04S
GLENWOOD       CLEAR     48  41  76 SE16      30.06S
APPLETON       CLEAR     54  41  62 SE15G22   30.00F
BENSON         CLEAR     50  39  66 S13G20    30.03S
ORTONVILLE     CLEAR     52  41  66 SE14G21   29.97F
MADISON        CLEAR     54  43  66 SE12      30.00S
WILLMAR        FAIR      48  39  71 SE15      30.08S
$$
MNZ033>034-036-042>043-049>051-058-059-220700-
   Central Minnesota

CITY           SKY/WX    TMP DP  RH WIND       PRES   REMARKS
ST CLOUD       FAIR      48  38  68 SE10      30.12F
6HR MIN TEMP:  48; 6HR MAX TEMP:  55;

SAUK CENTRE    FAIR      46  39  76 SE13      30.07F
PAYNESVILLE    CLEAR     46  39  77 E12       30.10S
AITKIN         CLEAR     46  37  71 SE6       30.11S
PINE RIVER     CLEAR     45  37  76 SE8       30.12S
BRAINERD       CLEAR     46  38  73 SE10      30.11S
STAPLES        CLEAR     46  37  71 SE13G20   30.07S
LONG PRAIRIE   FAIR      45  37  76 SE10G16   30.08S
LITTLE FALLS   CLEAR     43  36  75 SE7       30.11S
LITCHFIELD     CLEAR     48  41  76 SE10      30.11S
BUFFALO        CLEAR     47  38  70 SE6       30.15S
MAPLE LAKE     CLEAR     48  41  77 SE7       30.14S
$$
MNZ037-044-045-052-053-220700-
   East Central Minnesota

CITY           SKY/WX    TMP DP  RH WIND       PRES   REMARKS
PRINCETON      CLEAR     45  39  81 SE7       30.15S
MORA           CLEAR     39  34  81 SE5       30.18S
CAMBRIDGE      CLEAR     46  36  66 SE7       30.15S
RUSH CITY      PTCLDY    40  35  81 SE3       30.18S
MOOSE LAKE     CLEAR     34  32  93 CALM      30.15F
HINCKLEY       FAIR      41  36  81 E3        30.18S
CLOQUET        CLEAR     37  34  87 E5        30.17F
MCGREGOR       CLEAR     37  36  93 SE7       30.15S
$$
MNZ071>073-080-081-089-090-097-098-220700-
   Southwest Minnesota

CITY           SKY/WX    TMP DP  RH WIND       PRES   REMARKS
MONTEVIDEO     CLEAR     52  41  66 S12G17    30.04S
GRANITE FALLS  CLEAR     49  40  72 SE12      30.06S
CANBY          CLEAR     56  43  61 S13G25    30.00F
MARSHALL       CLEAR     54  39  58 S17G25    30.02F
REDWOOD FALLS  CLEAR     49  39  68 SE16      30.08S
OLIVIA         CLEAR     50  39  66 SE14      30.08S
PIPESTONE      CLEAR     52  43  71 S16G23    30.03S
WINDOM         CLEAR     48  39  71 SE13G18   30.10S
WORTHINGTON    CLEAR     48  39  71 SE13      30.08F
JACKSON        CLEAR     48  37  66 SE13      30.12R
TRACY          CLEAR     52  42  68 S16G23    30.05S
SLAYTON        CLEAR     50  41  72 SE13      30.07R
$$
MNZ065>067-074>077-082>085-091>093-220700-
   South Central Minnesota

CITY           SKY/WX    TMP DP  RH WIND       PRES   REMARKS
MANKATO        CLEAR     46  34  61 SE16      30.14S
NEW ULM        CLEAR     46  39  76 SE13      30.12S
ST JAMES       CLEAR     48  39  71 SE13      30.13R
FAIRMONT       CLEAR     46  36  66 SE15      30.13S
GLENCOE        CLEAR     47  40  77 SE7       30.13R
FARIBAULT      CLEAR     45  37  76 SE16      30.18R
OWATONNA       CLEAR     45  37  76 SE10      30.18R
WASECA         CLEAR     43  34  70 SE10      30.18R
ALBERT LEA     CLEAR     45  37  76 SE14      30.17F
$$
MNZ078>079-086>088-094>096-220700-
   Southeast Minnesota

CITY           SKY/WX    TMP DP  RH WIND       PRES   REMARKS
ROCHESTER      CLEAR     40  36  86 SE10      30.22S
6HR MIN TEMP:  40; 6HR MAX TEMP:  47;

RED WING       CLEAR     46  37  71 SE10G17   30.21S
STANTON        CLEAR     46  37  71 SE10G16   30.18R
DODGE CENTER   PTCLDY    41  37  87 SE14      30.20R
WINONA         CLEAR     41  36  81 SE7       30.25S
AUSTIN         CLEAR     43  37  81 SE10      30.20S
PRESTON        CLEAR     39  35  84 SE8       30.23F
$$
ABBREVIATIONS USED IN REMARKS
   TC - TEMPERATURES IN CELSIUS
  WCI - WIND CHILL INDEX
   HX - HEAT INDEX
  VSB - VISIBILITY
$$



USA.gov is the U.S. government's official web portal to all federal, state and local government web resources and services.